Wind_Speed
5 5 4 4 3 3 5 3 7 9 10 9 8 8 8 7 6 6 5 5 5 6 6 6 6 6 6 6 6 7 7 7 7 7 7 7 7 7 8 8 8 8 8 8 7 7 7 7 7
5 5 4 4 4 5 5 4 9 11 10 10 9 8 10 9 8 7 6 6 6 7 7 7 7 7 7 7 7 7 7 7 8 7 7 7 7 7 7 7 7 7 7 7 7 6 6 6 6
5 5 4 4 4 6 4 7 10 11 10 10 9 9 9 9 9 9 8 7 7 7 8 8 8 8 8 8 7 8 8 8 8 8 7 7 7 6 6 6 6 6 6 6 6 5 5 4 4
5 5 4 3 2 3 6 9 12 11 11 10 10 10 9 9 9 9 9 9 8 8 9 9 9 9 9 9 8 9 9 8 8 8 7 7 7 6 6 5 5 5 5 5 5 4 4 3 3
6 5 4 3 3 5 9 12 12 11 11 11 11 10 10 10 10 10 10 9 9 9 10 10 11 10 10 9 9 9 9 9 9 9 8 7 7 6 6 6 5 5 4 4 4 4 3 3 3
6 6 5 3 4 8 11 13 11 12 12 11 12 12 10 10 9 10 10 9 9 9 11 11 11 11 11 10 10 10 10 10 10 9 9 8 7 7 6 6 5 4 4 4 4 3 4 3 3
7 7 5 3 6 9 12 14 12 11 11 12 12 14 11 12 11 11 11 11 10 10 10 11 11 12 11 11 11 11 10 10 10 10 10 9 8 8 7 7 6 5 5 4 4 4 4 4 4
7 7 6 4 6 10 13 15 14 12 12 13 13 14 12 12 12 11 12 12 11 11 11 11 11 12 11 11 11 11 11 10 11 11 11 10 9 8 8 7 6 6 5 5 5 5 5 5 5
8 7 6 4 6 11 13 14 14 13 13 14 13 13 13 12 11 12 12 12 11 11 11 12 12 12 12 11 12 12 12 12 12 12 11 11 10 9 9 8 7 6 6 6 6 6 6 6 6
9 8 6 6 10 13 14 15 14 14 14 12 13 13 13 12 12 12 12 11 11 12 12 13 13 13 13 13 13 13 13 12 13 13 12 12 11 10 10 9 8 7 6 6 7 7 7 7 7
11 10 9 10 13 15 16 16 14 14 14 12 12 13 13 13 12 11 11 12 12 12 12 13 14 14 14 14 14 13 13 13 13 14 13 12 12 12 11 10 10 9 8 7 7 7 7 7 8
12 11 12 13 15 15 15 15 14 14 14 13 13 13 13 14 12 11 12 12 12 12 13 13 14 15 15 15 15 14 14 14 14 14 14 13 12 12 11 10 10 10 9 9 8 8 8 8 8
14 13 13 15 15 14 14 14 15 15 15 14 15 15 14 14 12 11 12 12 12 12 13 13 14 15 16 16 15 15 15 15 15 15 15 14 12 12 11 11 10 10 10 9 8 8 8 8 8
14 14 14 15 14 13 13 13 13 14 14 14 15 14 13 13 12 11 11 12 12 12 13 14 14 14 16 16 15 15 15 15 15 15 14 14 13 12 12 11 11 11 10 10 9 9 9 9 9
14 14 15 14 13 13 13 13 12 14 14 13 14 13 13 11 11 11 11 12 13 13 13 14 14 14 15 15 15 15 15 14 14 14 14 14 14 13 12 11 10 10 10 10 10 10 9 9 9
13 14 14 12 13 13 13 13 13 13 13 14 14 13 13 12 11 11 11 11 12 12 13 14 13 14 15 15 14 15 16 15 14 14 15 14 13 13 13 12 11 11 10 10 10 9 8 8 8
12 12 11 12 13 12 13 12 13 13 13 15 14 14 13 13 11 11 11 11 11 11 12 13 14 13 15 15 14 14 15 15 14 14 14 14 13 13 12 12 11 10 10 10 10 9 8 9 9
10 11 12 13 13 13 14 14 14 14 13 15 16 15 14 14 12 12 12 11 11 12 13 14 14 13 13 15 15 14 14 14 13 13 13 13 13 13 12 11 11 10 10 10 10 10 9 9 8
13 13 13 12 12 14 16 15 14 14 13 15 16 15 15 14 13 13 12 12 12 12 13 13 13 13 12 13 14 14 14 14 13 12 12 12 12 12 11 11 10 10 9 9 9 9 9 8 7
16 15 14 13 14 16 17 16 14 13 14 15 17 16 15 14 14 13 13 13 13 13 13 13 13 12 12 11 13 14 14 13 12 12 11 12 12 12 11 11 10 9 8 8 8 8 8 8 8
16 15 15 16 15 16 16 17 16 14 14 15 15 16 15 15 14 13 13 13 13 13 13 13 13 13 13 13 12 12 12 12 12 11 11 11 11 11 10 10 10 9 8 8 8 7 7 7 7
16 15 15 16 15 16 17 18 17 14 14 14 15 15 15 15 14 13 13 13 12 13 13 13 13 13 13 14 12 11 11 11 12 11 11 11 11 11 10 10 9 9 9 8 8 8 7 7 7
17 15 15 16 16 17 17 17 17 14 14 14 14 14 14 15 14 13 13 13 12 12 13 13 13 13 13 13 12 12 11 11 10 10 9 10 11 11 10 9 8 8 7 7 7 7 7 7 7
16 15 16 15 15 17 15 16 16 14 14 14 15 14 14 13 13 13 13 12 11 12 12 12 12 13 13 12 12 12 11 11 10 10 10 9 10 10 9 9 8 7 6 6 6 6 6 6 5
16 15 15 16 16 16 16 17 16 15 15 14 15 15 14 12 12 12 11 10 10 11 11 11 12 12 12 11 11 11 11 11 10 10 10 9 9 9 9 9 8 7 6 6 5 5 6 6 5
15 15 16 17 16 16 15 15 14 11 14 15 15 15 15 13 12 11 11 10 10 10 11 11 12 12 12 11 11 10 10 10 10 9 10 10 9 9 9 8 8 7 7 6 5 5 6 5 6
16 16 15 18 17 17 15 11 12 10 13 14 13 14 14 13 12 12 11 10 10 10 10 11 12 12 12 11 11 10 10 10 10 9 10 10 10 9 9 9 8 7 6 6 6 5 6 6 6
17 16 16 18 18 17 14 14 14 11 11 12 13 14 15 13 13 13 11 11 10 10 11 11 11 11 11 11 11 11 10 10 10 10 10 10 10 10 9 8 7 7 7 7 6 6 6 6 7
16 17 18 18 18 17 17 16 14 12 11 13 14 14 14 13 12 11 11 10 10 10 10 11 11 11 11 10 10 11 11 11 10 10 10 10 11 10 10 9 8 8 8 8 7 7 7 7 7
18 19 19 20 20 19 18 18 14 12 12 12 14 15 14 12 11 11 11 11 10 11 11 11 10 10 10 10 10 10 11 11 11 11 11 11 11 11 10 10 9 8 8 8 8 8 7 8 8
Wind_Direction
348 356 357 351 350 6 56 14 297 294 298 306 304 293 290 289 289 287 276 253 225 215 206 198 192 192 199 199 194 191 184 174 165 156 153 149 146 142 137 134 130 130 128 125 122 118 113 109 104
333 338 335 338 351 4 40 307 287 293 302 303 299 291 288 290 285 277 269 255 234 223 216 210 207 203 203 206 205 198 193 186 179 170 164 161 156 151 146 141 136 136 135 133 130 127 125 120 113
317 316 319 334 3 358 340 292 290 301 303 302 300 293 288 289 282 274 264 254 245 232 222 218 212 209 208 210 213 207 203 197 191 185 178 174 169 160 157 152 146 145 145 145 145 142 139 132 125
302 297 304 322 1 312 288 287 290 295 298 298 296 294 292 289 282 275 267 256 247 238 227 222 217 213 213 215 217 216 212 206 200 195 191 187 185 178 171 168 164 162 159 160 163 159 153 144 148
287 288 289 308 323 294 285 282 284 290 293 297 294 291 289 284 279 273 269 261 249 238 233 228 221 217 215 215 217 218 215 212 207 203 201 200 198 194 188 181 181 182 176 174 177 177 177 170 176
280 279 293 308 302 282 282 283 282 284 291 287 286 287 288 280 274 269 265 260 252 245 238 231 226 223 221 216 217 219 219 216 212 211 212 210 209 204 200 195 196 195 192 192 194 201 200 196 198
280 277 280 274 269 282 285 285 284 284 282 282 284 286 287 282 273 268 264 258 253 245 238 233 229 226 221 219 219 224 224 222 217 216 216 215 215 213 210 205 208 216 220 219 219 225 224 222 221
269 267 273 257 268 281 278 281 285 280 276 279 279 280 283 281 274 266 261 259 256 247 238 234 230 225 223 222 223 225 226 224 222 220 219 218 218 219 218 217 220 227 232 229 229 234 238 235 236
265 262 258 242 268 269 273 279 285 283 282 280 281 279 278 277 273 267 260 256 250 245 243 234 230 227 228 229 229 229 230 229 224 223 223 220 221 224 224 224 229 234 238 238 237 237 242 244 245
263 263 248 242 259 263 266 274 279 283 285 284 283 283 285 280 277 268 259 251 247 246 244 237 235 232 232 231 232 232 232 231 229 228 230 227 226 228 228 229 232 234 240 245 247 248 247 249 249
258 259 246 245 253 260 266 273 277 280 284 283 286 284 284 281 276 268 257 251 250 249 245 241 240 238 234 232 233 235 234 232 232 233 234 233 230 233 232 231 234 239 243 246 251 250 250 254 256
256 255 257 254 259 263 268 273 274 277 279 282 282 281 278 279 275 270 258 251 251 250 247 245 244 240 236 234 234 237 238 234 234 235 235 233 233 235 233 232 238 244 247 250 250 250 250 256 258
258 254 256 261 266 269 270 272 277 278 279 281 283 285 282 280 274 266 258 254 252 250 249 249 249 242 236 234 234 235 237 238 236 236 237 235 235 236 235 235 238 243 248 252 253 252 253 255 259
260 258 261 267 270 273 274 272 273 278 279 280 281 280 277 278 272 264 260 255 257 257 253 251 252 245 239 236 235 237 240 242 237 237 238 236 237 237 239 243 242 243 245 250 254 257 255 257 262
256 258 259 263 271 274 276 274 274 277 280 281 278 275 273 276 271 264 259 261 260 258 255 252 253 245 238 236 237 239 239 239 239 238 239 236 237 240 240 241 238 241 248 251 252 255 255 260 264
255 257 259 265 270 272 277 279 280 276 278 282 280 277 274 273 270 267 267 263 264 259 255 253 254 248 240 237 238 238 238 239 242 241 240 237 235 237 238 238 239 242 248 251 255 255 254 261 266
249 260 269 273 272 272 276 278 281 279 282 283 280 278 274 272 264 263 267 265 266 264 259 258 256 250 242 240 238 236 237 239 240 239 240 237 234 235 238 239 241 244 248 252 253 253 256 264 266
248 256 257 259 270 271 276 279 277 277 283 286 281 280 275 270 265 263 266 266 266 265 261 261 256 248 246 239 238 237 237 237 237 237 235 235 235 234 237 240 239 241 247 251 252 253 257 264 268
241 248 255 256 263 266 274 280 278 274 279 282 282 278 273 269 267 266 267 268 265 265 261 259 253 247 246 238 233 234 234 233 234 233 232 233 236 237 237 235 238 240 246 251 252 252 256 263 269
239 243 254 256 256 257 266 272 273 271 274 278 281 280 272 266 264 265 265 266 265 263 260 258 247 247 247 240 236 234 232 232 232 232 230 231 234 234 231 232 236 238 244 248 252 251 254 259 267
240 243 249 254 253 257 265 269 265 264 267 278 280 280 273 269 264 264 265 267 263 261 259 254 246 246 243 241 240 236 233 230 231 233 231 227 230 229 229 229 233 237 244 249 248 249 256 259 267
239 244 249 254 254 256 259 270 272 273 278 276 282 279 276 269 263 265 264 264 264 260 256 251 246 243 241 239 237 233 232 230 229 232 230 227 227 225 225 227 231 237 242 245 246 251 255 260 269
237 242 247 250 252 253 257 265 274 279 276 279 282 276 275 271 265 264 261 260 260 256 250 244 244 240 238 237 235 228 227 227 227 228 228 227 223 218 219 222 228 233 234 236 243 249 253 260 267
235 240 248 252 250 251 255 260 268 271 272 281 281 275 275 268 263 261 259 259 256 250 244 239 239 239 236 233 227 225 225 228 227 227 228 226 219 217 217 216 220 225 226 230 238 245 251 257 264
235 235 245 253 253 255 250 246 254 266 273 277 279 282 278 268 260 260 259 255 252 245 237 236 235 235 232 228 224 224 227 229 231 229 221 219 215 213 212 211 215 218 223 231 239 243 250 256 264
234 232 241 253 264 260 250 237 244 258 268 275 273 273 274 264 257 258 257 252 248 241 233 231 233 232 229 228 223 224 229 228 224 221 215 217 215 211 212 211 213 218 225 232 236 242 250 257 268
232 233 242 256 263 270 268 266 252 248 264 275 271 269 266 263 256 251 252 248 243 237 228 227 227 227 226 223 221 222 222 217 217 217 214 216 214 212 212 210 213 219 225 233 239 249 255 261 274
232 235 241 245 252 259 260 255 243 229 258 270 270 270 266 254 253 245 243 244 241 234 226 223 222 223 220 218 222 220 217 217 219 221 218 218 213 210 212 211 217 223 230 238 248 258 262 264 274
235 231 234 240 246 252 264 266 253 243 255 262 269 268 267 260 253 237 235 239 236 228 219 218 218 215 213 216 219 219 217 218 222 220 217 216 214 214 211 216 223 231 237 245 253 260 267 270 278
232 233 233 239 245 246 258 269 264 257 256 262 268 265 260 254 244 231 234 235 232 224 219 214 212 211 213 217 221 222 221 219 221 219 218 217 213 212 217 221 226 234 244 251 256 264 269 273 279
Height
5878 5878 5877 5877 5878 5876 5874 5876 5877 5876 5875 5874 5874 5873 5872 5872 5873 5875 5872 5872 5873 5873 5873 5874 5875 5876 5877 5877 5878 5878 5879 5879 5880 5880 5881 5881 5882 5882 5883 5883 5883 5884 5885 5886 5887 5888 5888 5889 5889
5878 5877 5877 5877 5876 5874 5873 5877 5876 5875 5874 5874 5873 5872 5871 5871 5871 5872 5871 5872 5872 5873 5873 5874 5875 5876 5876 5877 5878 5878 5879 5880 5880 5881 5881 5882 5882 5883 5884 5884 5885 5885 5887 5887 5888 5889 5889 5890 5890
5876 5876 5876 5876 5875 5875 5876 5877 5875 5873 5873 5872 5872 5871 5870 5870 5870 5870 5870 5871 5872 5872 5873 5874 5874 5875 5876 5877 5878 5879 5879 5880 5880 5881 5882 5882 5883 5884 5884 5885 5886 5887 5887 5888 5889 5890 5890 5891 5891
5875 5876 5876 5876 5875 5876 5877 5876 5874 5873 5872 5871 5871 5870 5869 5869 5869 5869 5869 5870 5871 5872 5872 5873 5873 5875 5875 5876 5877 5878 5879 5880 5880 5881 5882 5883 5883 5884 5885 5886 5887 5887 5888 5889 5889 5890 5891 5891 5892
5874 5874 5875 5874 5874 5876 5876 5875 5873 5872 5871 5870 5869 5869 5868 5868 5868 5868 5868 5868 5869 5870 5871 5871 5872 5873 5874 5876 5877 5877 5878 5879 5880 5881 5882 5883 5884 5884 5885 5886 5887 5888 5888 5889 5890 5890 5891 5892 5892
5873 5873 5872 5872 5875 5875 5876 5873 5872 5871 5870 5869 5867 5866 5866 5865 5865 5866 5866 5867 5868 5869 5869 5870 5871 5872 5873 5874 5876 5877 5878 5879 5880 5881 5882 5883 5884 5884 5885 5886 5887 5888 5889 5889 5890 5891 5891 5892 5892
5871 5871 5871 5872 5874 5875 5874 5871 5870 5869 5868 5867 5866 5864 5865 5864 5864 5864 5865 5865 5866 5867 5868 5869 5870 5871 5872 5873 5874 5875 5877 5878 5879 5880 5881 5882 5883 5884 5885 5886 5887 5888 5888 5889 5890 5891 5891 5892 5892
5869 5870 5870 5871 5873 5874 5872 5869 5868 5867 5866 5865 5864 5862 5862 5862 5862 5862 5862 5863 5864 5865 5866 5867 5868 5870 5871 5872 5873 5874 5876 5877 5878 5879 5880 5881 5882 5884 5884 5885 5886 5887 5888 5889 5889 5890 5891 5891 5892
5867 5868 5868 5870 5872 5872 5869 5867 5867 5864 5864 5863 5862 5861 5860 5859 5859 5860 5860 5861 5863 5863 5864 5866 5867 5868 5869 5871 5872 5873 5874 5876 5877 5878 5879 5880 5882 5883 5884 5885 5886 5886 5887 5888 5889 5890 5891 5891 5892
5865 5866 5867 5869 5869 5869 5868 5866 5865 5863 5862 5861 5861 5859 5858 5858 5858 5859 5859 5860 5861 5861 5862 5864 5865 5867 5868 5869 5870 5872 5873 5874 5876 5877 5878 5879 5881 5882 5883 5884 5885 5886 5886 5887 5888 5889 5890 5890 5891
5863 5864 5864 5866 5866 5865 5864 5863 5862 5861 5860 5859 5858 5858 5857 5856 5856 5857 5857 5858 5858 5860 5860 5862 5863 5864 5866 5867 5869 5870 5871 5873 5874 5876 5877 5878 5879 5881 5882 5883 5884 5885 5885 5886 5887 5888 5889 5889 5890
5860 5861 5862 5862 5862 5862 5861 5860 5859 5859 5858 5856 5855 5855 5855 5854 5854 5854 5855 5855 5857 5858 5859 5860 5861 5862 5863 5865 5866 5868 5870 5871 5873 5874 5876 5877 5878 5880 5881 5882 5883 5884 5884 5885 5886 5887 5888 5888 5889
5857 5858 5859 5859 5859 5859 5859 5858 5857 5856 5855 5854 5853 5853 5852 5852 5852 5852 5853 5853 5854 5856 5857 5858 5859 5859 5861 5862 5864 5866 5868 5869 5871 5872 5874 5876 5877 5878 5879 5880 5881 5882 5883 5884 5885 5886 5886 5887 5887
5855 5855 5855 5856 5856 5856 5856 5856 5855 5854 5852 5851 5851 5851 5851 5850 5850 5850 5850 5851 5852 5853 5854 5855 5856 5857 5858 5860 5862 5864 5866 5867 5868 5870 5872 5874 5875 5877 5878 5879 5880 5881 5882 5883 5884 5884 5885 5885 5886
5851 5852 5852 5852 5853 5853 5853 5853 5853 5852 5850 5849 5849 5849 5849 5848 5849 5849 5849 5850 5850 5851 5852 5853 5854 5854 5856 5858 5859 5861 5863 5865 5866 5868 5870 5872 5874 5875 5876 5877 5878 5879 5880 5881 5882 5883 5883 5884 5884
5848 5848 5848 5849 5849 5850 5852 5851 5851 5848 5847 5847 5847 5846 5846 5847 5847 5847 5848 5848 5848 5849 5850 5851 5851 5852 5854 5855 5857 5859 5861 5863 5865 5866 5868 5869 5871 5873 5874 5876 5877 5878 5879 5880 5881 5881 5882 5883 5883
5844 5845 5845 5847 5847 5847 5848 5848 5848 5846 5845 5844 5844 5844 5844 5844 5845 5845 5846 5846 5847 5847 5848 5848 5849 5851 5852 5854 5855 5857 5859 5861 5863 5864 5866 5867 5869 5871 5872 5874 5875 5876 5877 5878 5879 5880 5881 5881 5881
5842 5843 5844 5845 5845 5844 5845 5845 5845 5843 5842 5842 5841 5841 5841 5842 5842 5842 5843 5844 5845 5845 5845 5846 5847 5848 5850 5851 5853 5855 5857 5859 5861 5862 5864 5865 5867 5869 5870 5872 5873 5874 5875 5877 5878 5878 5879 5880 5880
5839 5841 5842 5843 5843 5843 5843 5843 5842 5839 5839 5840 5839 5839 5838 5839 5839 5840 5841 5841 5842 5843 5843 5844 5845 5846 5848 5849 5851 5853 5854 5856 5859 5860 5862 5863 5865 5867 5868 5870 5871 5873 5874 5875 5876 5877 5878 5878 5879
5836 5837 5839 5840 5840 5840 5840 5839 5839 5837 5836 5837 5836 5836 5835 5836 5837 5837 5838 5839 5839 5840 5841 5841 5843 5844 5845 5847 5849 5851 5852 5854 5857 5858 5860 5862 5863 5865 5866 5868 5870 5871 5872 5873 5874 5875 5876 5876 5877
5833 5835 5836 5837 5837 5837 5837 5835 5835 5834 5834 5833 5833 5832 5832 5832 5833 5835 5835 5836 5837 5837 5838 5839 5841 5842 5843 5845 5847 5849 5851 5853 5855 5856 5858 5860 5861 5863 5865 5866 5868 5869 5871 5872 5873 5874 5874 5875 5876
5830 5831 5833 5833 5833 5834 5833 5831 5830 5830 5830 5830 5830 5830 5829 5829 5830 5831 5832 5833 5834 5835 5836 5837 5838 5839 5841 5843 5845 5847 5849 5851 5853 5854 5856 5858 5859 5861 5863 5865 5866 5868 5869 5870 5871 5872 5873 5874 5874
5826 5828 5829 5829 5829 5830 5829 5829 5828 5827 5827 5826 5826 5826 5826 5826 5827 5828 5829 5830 5831 5832 5833 5834 5836 5837 5839 5841 5843 5845 5847 5849 5851 5852 5854 5856 5858 5859 5861 5863 5865 5866 5867 5868 5869 5870 5871 5872 5873
5822 5824 5825 5825 5825 5826 5826 5826 5825 5824 5824 5823 5822 5822 5823 5824 5825 5826 5826 5827 5828 5829 5830 5832 5833 5835 5836 5838 5841 5843 5845 5848 5849 5851 5852 5854 5856 5858 5860 5861 5863 5865 5866 5867 5868 5869 5870 5871 5871
5819 5821 5822 5822 5821 5821 5822 5822 5822 5822 5822 5821 5819 5819 5819 5821 5822 5823 5824 5825 5825 5827 5828 5829 5831 5833 5834 5836 5838 5841 5843 5846 5847 5849 5851 5853 5855 5857 5858 5860 5862 5863 5865 5866 5867 5868 5869 5869 5870
5815 5817 5818 5819 5818 5816 5816 5816 5817 5818 5818 5818 5818 5818 5817 5818 5819 5821 5821 5822 5823 5824 5826 5827 5829 5831 5833 5835 5837 5839 5841 5843 5845 5847 5849 5852 5853 5855 5857 5859 5861 5862 5864 5865 5866 5867 5868 5868 5869
5811 5813 5815 5816 5814 5813 5812 5813 5813 5812 5814 5814 5815 5816 5815 5815 5816 5817 5819 5820 5821 5822 5824 5825 5827 5829 5831 5833 5835 5837 5839 5842 5844 5846 5848 5850 5852 5854 5856 5858 5859 5861 5862 5863 5865 5866 5866 5867 5867
5808 5810 5811 5812 5811 5810 5810 5809 5808 5809 5810 5811 5812 5812 5811 5812 5813 5814 5816 5817 5818 5820 5822 5823 5825 5828 5829 5831 5833 5835 5838 5840 5842 5844 5846 5848 5850 5852 5855 5857 5858 5859 5861 5862 5863 5864 5865 5866 5866
5804 5806 5807 5807 5807 5807 5806 5807 5804 5804 5807 5808 5809 5809 5808 5808 5809 5811 5813 5815 5816 5818 5820 5822 5824 5826 5828 5830 5832 5834 5836 5838 5840 5842 5844 5846 5848 5851 5853 5855 5857 5858 5860 5861 5862 5863 5863 5864 5864
5800 5801 5802 5803 5803 5803 5804 5806 5802 5803 5804 5805 5806 5805 5805 5805 5807 5809 5811 5813 5814 5816 5819 5820 5822 5824 5826 5828 5830 5832 5834 5836 5838 5840 5842 5844 5846 5849 5851 5853 5855 5856 5858 5859 5860 5861 5861 5862 5862